TimeCDT,TemperatureF,Dew PointF,Humidity,Sea Level PressureIn,VisibilityMPH,Wind Direction,Wind SpeedMPH,Gust SpeedMPH,PrecipitationIn,Events,Conditions,WindDirDegrees,DateUTC
12:53 AM,57.9,41.0,53,30.11,10.0,South,6.9,-,N/A,,Overcast,190,2014-03-15 05:53:00
1:53 AM,57.0,42.1,57,30.10,10.0,SSW,5.8,-,N/A,,Overcast,200,2014-03-15 06:53:00
2:53 AM,55.9,44.1,64,30.10,10.0,South,4.6,-,N/A,,Overcast,190,2014-03-15 07:53:00
3:53 AM,55.0,46.9,74,30.10,10.0,Calm,Calm,-,0.00,,Overcast,0,2014-03-15 08:53:00
4:53 AM,53.1,48.0,83,30.10,10.0,South,3.5,-,0.00,,Overcast,190,2014-03-15 09:53:00
5:53 AM,54.0,46.9,77,30.12,10.0,South,3.5,-,N/A,,Overcast,190,2014-03-15 10:53:00
6:53 AM,54.0,48.0,80,30.12,10.0,Calm,Calm,-,N/A,,Overcast,0,2014-03-15 11:53:00
7:53 AM,54.0,48.0,80,30.13,10.0,Calm,Calm,-,N/A,,Overcast,0,2014-03-15 12:53:00
8:53 AM,55.9,48.9,77,30.14,10.0,Calm,Calm,-,N/A,,Overcast,0,2014-03-15 13:53:00
9:53 AM,57.9,51.1,78,30.14,10.0,Variable,3.5,-,N/A,,Overcast,0,2014-03-15 14:53:00
10:53 AM,63.0,52.0,67,30.13,10.0,West,5.8,-,N/A,,Partly Cloudy,280,2014-03-15 15:53:00
11:53 AM,64.0,52.0,65,30.12,10.0,Calm,Calm,-,N/A,,Mostly Cloudy,0,2014-03-15 16:53:00
12:53 PM,66.0,52.0,60,30.09,10.0,Variable,4.6,-,N/A,,Mostly Cloudy,0,2014-03-15 17:53:00
1:53 PM,66.0,48.9,54,30.06,10.0,Calm,Calm,-,N/A,,Overcast,0,2014-03-15 18:53:00
2:53 PM,66.0,48.9,54,30.04,10.0,Calm,Calm,-,N/A,,Overcast,0,2014-03-15 19:53:00
3:53 PM,66.0,50.0,56,30.02,10.0,Calm,Calm,-,N/A,,Overcast,0,2014-03-15 20:53:00
4:53 PM,66.0,48.9,54,30.01,10.0,SSE,3.5,-,N/A,,Overcast,150,2014-03-15 21:53:00
5:53 PM,64.9,50.0,58,30.00,10.0,SE,4.6,-,N/A,,Overcast,130,2014-03-15 22:53:00
6:53 PM,64.0,50.0,60,29.99,10.0,SE,5.8,-,N/A,,Overcast,140,2014-03-15 23:53:00
7:53 PM,62.1,51.1,67,30.00,10.0,Calm,Calm,-,N/A,,Mostly Cloudy,0,2014-03-16 00:53:00
8:53 PM,61.0,51.1,70,29.99,10.0,Calm,Calm,-,N/A,,Scattered Clouds,0,2014-03-16 01:53:00
9:53 PM,61.0,51.1,70,29.99,10.0,Calm,Calm,-,N/A,,Overcast,0,2014-03-16 02:53:00
10:53 PM,59.0,54.0,83,29.99,7.0,SSE,3.5,-,0.01,Rain,Light Rain,150,2014-03-16 03:53:00
11:53 PM,57.0,55.9,96,29.96,3.0,Calm,Calm,-,0.09,Rain,Rain,0,2014-03-16 04:53:00